Location: Chiroubles
(46.1812°N, 4.6660°E)
Time: 01:54:32
(UTC+00:00)

Cosmos 468 Rocket - Pass Details

Date: 15 August 2020
Orbit: 744 x 780 km, 74.0° (Epoch: 19 September)

Event Time Altitude Azimuth Distance (km) Brightness Sun altitude
Rises 20:28:41 0° 337° (NNW) 3,272 8.4 -15.6°
Reaches altitude 10° 20:31:06 10° 336° (NNW) 2,337 7.5 -15.9°
Maximum altitude 20:36:24 79° 251° (WSW) 792 4.1 -16.6°
Enters shadow 20:39:46 23° 167° (SSE) 1,598 5.2 -17.0°
